SBS 5

operational
NORAD ID: 19484 Int'l Des: 1988-081 Owner: STLC Country: US
HEOCIRCULARGSO

About SBS 5

Description loading...

Live Position

Loading 3D Globe...

Upcoming Passes

Altitude History

Altitude vs Time

uPlot chart will show altitude changes over time

Two-Line Element Set

1 19484U 88081B 25260.15725492 -.00000308 00000-0 00000-0 0 9993
2 19484 14.5430 2.9757 0005036 287.2554 74.9028 0.99793685 43746
Epoch: Sep 17, 2025 • Age: 45 hours

Current Status

Altitude 35904.4 km
Velocity 3.07 km/s
Sub-Earth Point -9.69°S, 50.12°W
Launch Date Sep 8, 1988
Age 37 years
Type positioning

Technical Details

Classification Payload
Mass 703.00 kg
Dry Mass 550.00 kg
Total Mass 1246.00 kg
Length 6.60 m
Diameter 2.20 m
Span 6.60 m
Shape Cyl
Manufacturer HSES
Bus Type HS-376
Phase Status Renamed
Owner/State STLC/US

Large Constellations

Loading constellations...